Weather History for Hettinger, ND

Change the Weather History Date:

Saturday, January 19, 2013

  Actual Average Record
Temperature  
Mean Temperature 21 °F -  
Max Temperature 36 °F 28 °F 54 °F (2005)
Min Temperature 6 °F 6 °F -15 °F (2011)
Degree Days  
Heating Degree Days 44 48  
Month to date heating degree days 845 927  
Since 1 July heating degree days 4278 4506  
Moisture  
Dew Point 16 °F    
Average Humidity 74    
Maximum Humidity 85    
Minimum Humidity 61    
Precipitation  
Precipitation T in 0.00 in 0.03 in (2012)
Month to date precipitation T 0.18  
Year to date precipitation T 0.18  
Sea Level Pressure  
Sea Level Pressure 30.18 in    
Wind  
Wind Speed 13 mph (NW)    
Max Wind Speed 31 mph    
Max Gust Speed 37 mph    
Visibility 10 miles    
Events Snow    
T = Trace of Precipitation, MM = Missing Value Source: NWS Daily Summary

Daily Weather History Graph

Daily Weather History Graph

Search for Another Location

Airport:

Trip Planner

Search our weather history database for the weather conditions in past years. The results will help you decide how hot, cold, wet, or windy it might be!

Date:

Astronomy

Jan. 19, 2013 Rise Set
Actual Time 7:25 AM MST 4:37 PM MST
Civil Twilight 6:52 AM MST 5:10 PM MST
Nautical Twilight 6:15 AM MST 5:47 PM MST
Astronomical Twilight 5:40 AM MST 6:23 PM MST
Moon 11:08 AM MST (1/19) 12:57 AM MST (1/19)
Length of Visible Light 10h 18m
Length of Day
9h 12m
First Quarter, 58% of the Moon is Illuminated
Jan 19
First Quarter
Jan 26
Full
Feb 3
Last Quarter
Feb 10
New
Feb 17
First Quarter

Hourly Weather History & Observations

Time (MST) Temp. Windchill Dew Point Humidity Pressure Visibility Wind Dir Wind Speed Gust Speed Precip Events Conditions
12:53 AM 35.1 °F 28.6 °F 27.0 °F 72% 29.85 in 10.0 mi West 8.1 mph - N/A   Overcast
1:53 AM 34.0 °F 24.2 °F 26.1 °F 73% 29.88 in 10.0 mi WNW 15.0 mph - N/A   Mostly Cloudy
2:53 AM 34.0 °F 24.6 °F 26.1 °F 73% 29.92 in 10.0 mi WNW 13.8 mph - N/A   Overcast
3:53 AM 33.1 °F 24.4 °F 25.0 °F 72% 29.95 in 10.0 mi WNW 11.5 mph - N/A   Mostly Cloudy
4:53 AM 28.0 °F 20.8 °F 23.0 °F 81% 29.98 in 10.0 mi WNW 6.9 mph - N/A   Clear
5:53 AM 28.9 °F 18.6 °F 24.1 °F 82% 30.01 in 10.0 mi WNW 12.7 mph - N/A   Clear
6:53 AM 30.0 °F 19.1 °F 24.1 °F 79% 30.03 in 10.0 mi WNW 15.0 mph - N/A   Clear
7:53 AM 30.9 °F 19.1 °F 24.1 °F 76% 30.07 in 10.0 mi WNW 18.4 mph 24.2 mph N/A   Mostly Cloudy
8:53 AM 32.0 °F 22.1 °F 26.1 °F 79% 30.12 in 10.0 mi WNW 13.8 mph - N/A   Overcast
9:25 AM 33.8 °F 21.3 °F 26.6 °F 75% 30.08 in 10.0 mi NW 24.2 mph 29.9 mph N/A   Overcast
9:41 AM 30.2 °F 18.5 °F 24.8 °F 80% 30.10 in 8.0 mi North 17.3 mph 29.9 mph 0.00 in Snow Light Snow
9:53 AM 30.0 °F 16.3 °F 24.1 °F 79% 30.17 in 10.0 mi NW 24.2 mph 31.1 mph 0.00 in   Overcast
10:14 AM 28.4 °F 14.7 °F 21.2 °F 74% 30.11 in 10.0 mi NW 21.9 mph 31.1 mph N/A   Overcast
10:53 AM 27.0 °F 13.5 °F 21.0 °F 78% 30.23 in 10.0 mi North 19.6 mph 28.8 mph N/A   Overcast
11:06 AM 26.6 °F 12.7 °F 19.4 °F 74% 30.15 in 10.0 mi NNW 20.7 mph 27.6 mph N/A   Overcast
11:15 AM 24.8 °F 8.7 °F 17.6 °F 74% 30.14 in 10.0 mi NNW 26.5 mph 34.5 mph N/A   Overcast
11:53 AM 24.1 °F 7.4 °F 15.1 °F 69% 30.24 in 10.0 mi NNW 27.6 mph 36.8 mph N/A   Partly Cloudy
12:53 PM 21.9 °F 4.8 °F 12.0 °F 66% 30.27 in 10.0 mi NW 26.5 mph 35.7 mph N/A   Partly Cloudy
1:53 PM 19.0 °F 2.0 °F 9.0 °F 65% 30.30 in 10.0 mi NNW 23.0 mph 32.2 mph N/A   Partly Cloudy
2:53 PM 18.0 °F 0.2 °F 7.0 °F 62% 30.33 in 10.0 mi NNW 24.2 mph 31.1 mph N/A   Clear
3:53 PM 15.1 °F -1.1 °F 5.0 °F 64% 30.36 in 10.0 mi NW 17.3 mph - N/A   Clear
4:53 PM 12.0 °F -1.3 °F 3.9 °F 70% 30.39 in 10.0 mi NNW 10.4 mph - N/A   Clear
5:53 PM 10.0 °F 1.8 °F 3.9 °F 76% 30.39 in 10.0 mi North 4.6 mph - N/A   Clear
6:53 PM 9.0 °F - 3.9 °F 80% 30.38 in 10.0 mi Calm Calm - N/A   Clear
7:53 PM 7.0 °F -3.3 °F 1.9 °F 80% 30.38 in 10.0 mi North 5.8 mph - N/A   Clear
8:53 PM 8.1 °F - 1.9 °F 76% 30.35 in 10.0 mi Calm Calm - N/A   Mostly Cloudy
9:53 PM 10.0 °F - 1.9 °F 70% 30.35 in 10.0 mi Calm Calm - N/A   Overcast
10:53 PM 10.0 °F 3.6 °F 3.0 °F 73% 30.32 in 10.0 mi ENE 3.5 mph - N/A   Overcast
11:53 PM 10.9 °F 4.7 °F 3.9 °F 73% 30.32 in 10.0 mi ESE 3.5 mph - N/A   Overcast